Regional Weather Roundup
Issued by NWS

Home | Current Version | Previous Version | Graphics & Text | Print | Product List | Glossary On
Versions: 1 2 3 4 5 6 7 8 9 10 11 12 13 14 15 16 17 18 19 20 21 22 23 24 25 26 27 28 29 30 31 32 33 34 35 36 37 38 39 40 41 42 43 44 45 46 47 48 49 50
000
ASUS43 KLSX 221007
RWRMO

WEATHER SUMMARY FOR MISSOURI
NATIONAL WEATHER SERVICE SPRINGFIELD MO
500 AM CDT TUE JUL 22 2014

NOTE: "FAIR" INDICATES FEW OR NO CLOUDS BELOW 12,000 FEET WITH NO
       SIGNIFICANT WEATHER AND/OR OBSTRUCTIONS TO VISIBILITY.
       CURRENT SKY AND/OR WEATHER CONDITIONS ARE NOT AVAILABLE FOR
       CHILLICOTHE AND FARMINGTON.

MOZ001>031-035>038-043-044-053-054-221100-
...NORTHERN AND WESTERN MISSOURI...

CITY           SKY/WX    TMP DP  RH WIND       PRES   REMARKS
KANSAS CTY INT CLEAR     77  73  87 S13       29.99S
KANSAS C DTWN  CLEAR     79  73  82 S9        29.99R
LEE`S SUMMIT   CLEAR     76  72  87 S8        30.02R
ST JOSEPH      CLEAR     78  74  87 S8        29.96S
CHILLICOTHE      N/A     76  72  87 S5        30.02R
KIRKSVILLE     CLEAR     73  68  84 S8        30.04R

$$
MOZ066>068-077>081-088>096-101>105-221100-
...SOUTHWEST MISSOURI...

CITY           SKY/WX    TMP DP  RH WIND       PRES   REMARKS
SPRINGFIELD    CLEAR     70  66  87 S6        30.08S
JOPLIN         CLEAR     73  68  84 S9        30.06R

$$
MOZ032>034-039>042-045>050-055>058-069>072-221100-
...CENTRAL MISSOURI...

CITY           SKY/WX    TMP DP  RH WIND       PRES   REMARKS
COLUMBIA       CLEAR     70  67  90 S7        30.06R
JEFFERSON CITY CLEAR     72  66  81 E3        30.06R
ROLLA          CLEAR     69  63  81 S10       30.08R
SEDALIA        CLEAR     72  66  81 S8        30.04F
WHITEMAN AFB   PTCLDY    71  60  67 S7        30.03R
OSAGE BEACH    CLEAR     70  64  83 SE3       30.07R

$$
MOZ051-052-059>065-221100-
...EAST CENTRAL MISSOURI...

CITY           SKY/WX    TMP DP  RH WIND       PRES   REMARKS
ST LOUIS INTL  CLEAR     75  65  70 SW6       30.08S
SPIRIT OF STL  CLEAR     67  64  90 CALM      30.07R
ST CHARLES     CLEAR     67  64  90 CALM      30.07R

$$
MOZ072>076-082>087-097>100-106>115-221100-
...SOUTH CENTRAL AND SOUTHEAST MISSOURI...

CITY           SKY/WX    TMP DP  RH WIND       PRES   REMARKS
CAPE GIRARDEAU FOG       64  63  96 CALM      30.09R VSB 1/4
FARMINGTON       N/A     63  61  94 CALM      30.13R VSB 3/4
POPLAR BLUFF   CLEAR     63  60  90 CALM      30.08R FOG
WEST PLAINS    CLEAR     64  61  90 CALM      30.12S

$$



USA.gov is the U.S. government's official web portal to all federal, state and local government web resources and services.